DW7875 Weather Reports


Display with metric or nautical units.
time (UTC)temp
F
wind
direction
speed
MPH
gust
MPH
rain 1hr
in
rain 24hr
in
rain mn
in
humidity
%
barometer
mb
20260510153036 71 61 1.0 3.0 0.00 0.00 0.00 58 1013.5
20260510151524 71 145 1.0 2.0 0.00 0.00 0.00 57 1013.4
20260510150022 72 145 1.0 3.0 0.00 0.00 0.00 57 1013.2
20260510144538 72 134 0.0 4.0 0.00 0.00 0.00 57 1013.1
20260510143018 72 146 0.0 3.0 0.00 0.00 0.00 58 1013.0
20260510141516 71 183 0.0 2.0 0.00 0.00 0.00 58 1012.9
20260510140011 68 150 0.0 2.0 0.00 0.00 0.00 60 1012.9
20260510134507 65 150 0.0 2.0 0.00 0.00 0.00 64 1012.9
20260510133002 63 358 0.0 2.0 0.00 0.00 0.00 66 1012.8
20260510131559 62 351 0.0 2.0 0.00 0.00 0.00 68 1013.0
20260510130056 61 351 0.0 1.0 0.00 0.00 0.00 69 1013.2
20260510124553 60 351 0.0 1.0 0.00 0.00 0.00 71 1013.2
20260510123049 59 351 0.0 2.0 0.00 0.00 0.00 74 1013.2
20260510121553 58 351 0.0 1.0 0.00 0.00 0.00 74 1013.0
20260510120045 58 350 0.0 2.0 0.00 0.00 0.00 74 1012.6
20260510114550 58 262 0.0 2.0 0.00 0.00 0.00 74 1012.3
20260510113043 57 261 0.0 1.0 0.00 0.00 0.00 74 1012.1
20260510111540 57 262 0.0 3.0 0.00 0.00 0.00 73 1011.9
20260510110040 57 257 0.0 4.0 0.00 0.00 0.00 73 1011.5
20260510104537 57 283 1.0 4.0 0.00 0.00 0.00 73 1011.4
20260510103041 57 20 0.0 0.0 0.00 0.00 0.00 71 1011.2
20260510101532 57 116 0.0 2.0 0.00 0.00 0.00 71 1011.0
20260510100034 57 99 0.0 1.0 0.00 0.00 0.00 70 1010.8
20260510094529 58 99 0.0 3.0 0.00 0.00 0.00 69 1010.8
20260510093027 58 313 0.0 3.0 0.00 0.00 0.00 69 1010.7
20260510091524 58 311 0.0 4.0 0.00 0.00 0.00 71 1010.5
20260510090022 57 243 0.0 3.0 0.00 0.00 0.00 73 1010.4
20260510084520 57 154 0.0 3.0 0.00 0.00 0.00 73 1010.2
20260510083027 57 150 0.0 2.0 0.00 0.00 0.00 73 1009.9
20260510081520 57 151 0.0 1.0 0.00 0.00 0.00 73 1009.9
20260510080015 57 151 0.0 1.0 0.00 0.00 0.00 73 1009.7
20260510074514 57 151 0.0 1.0 0.00 0.00 0.00 73 1009.5
20260510073012 57 151 0.0 1.0 0.00 0.00 0.00 73 1009.6
20260510071511 57 151 0.0 2.0 0.00 0.00 0.00 73 1009.4
20260510070022 58 149 0.0 1.0 0.00 0.00 0.00 72 1009.5
20260510064513 58 149 0.0 1.0 0.00 0.00 0.00 72 1009.3
20260510063011 58 209 0.0 2.0 0.00 0.00 0.00 72 1009.3
20260510061508 58 203 0.0 1.0 0.00 0.00 0.00 72 1009.4
20260510060008 58 203 0.0 0.0 0.00 0.00 0.00 72 1009.3
20260510054510 58 203 0.0 0.0 0.00 0.00 0.00 72 1009.5
20260510053005 58 203 0.0 0.0 0.00 0.00 0.00 72 1009.6
20260510051504 57 203 0.0 1.0 0.00 0.00 0.00 73 1009.6
20260510050004 57 203 0.0 0.0 0.00 0.00 0.00 73 1009.4
20260510044503 58 203 0.0 0.0 0.00 0.00 0.00 73 1009.4
20260510043000 58 203 0.0 0.0 0.00 0.00 0.00 73 1009.6
20260510041612 58 203 0.0 0.0 0.00 0.00 0.00 73 1009.6
20260510040058 59 203 0.0 0.0 0.00 0.00 0.00 72 1009.6
20260510034557 59 203 0.0 0.0 0.00 0.00 0.00 72 1009.4
20260510033057 60 203 0.0 0.0 0.00 0.00 0.00 72 1009.4
20260510031559 61 203 0.0 0.0 0.00 0.00 0.00 72 1009.2
20260510030058 61 203 0.0 0.0 0.00 0.00 0.00 73 1009.1
20260510024600 61 203 0.0 0.0 0.00 0.00 0.00 72 1009.1
20260510023054 61 203 0.0 1.0 0.00 0.00 0.00 71 1009.1
20260510021553 61 203 0.0 1.0 0.00 0.00 0.00 70 1009.0
20260510020054 62 203 0.0 1.0 0.00 0.00 0.00 68 1008.9
20260510014551 62 203 0.0 1.0 0.00 0.00 0.00 67 1008.8
20260510013103 62 203 0.0 1.0 0.00 0.00 0.00 67 1008.8
20260510011550 62 203 0.0 2.0 0.00 0.00 0.00 67 1008.6
20260510004557 62 203 0.0 2.0 0.00 0.00 0.00 67 1008.5
20260510003049 62 186 0.0 1.0 0.00 0.00 0.00 67 1008.5
20260510001547 62 185 0.0 3.0 0.00 0.00 0.00 68 1008.3
20260510000048 63 139 0.0 2.0 0.00 0.00 0.00 68 1008.2
20260509234600 64 73 0.0 2.0 0.00 0.00 0.00 67 1008.3
20260509233045 64 66 0.0 2.0 0.00 0.00 0.00 66 1008.1
20260509231543 65 64 1.0 3.0 0.00 0.00 0.00 65 1008.0
20260509230043 65 141 1.0 4.0 0.00 0.00 0.00 65 1007.9
20260509224542 66 141 1.0 3.0 0.00 0.00 0.00 63 1008.0
20260509223042 66 140 0.0 4.0 0.00 0.00 0.00 63 1008.0
20260509221601 67 147 0.0 3.0 0.00 0.00 0.00 62 1008.1
20260509220052 67 179 0.0 3.0 0.00 0.00 0.00 60 1008.2
20260509214540 68 174 1.0 3.0 0.00 0.00 0.00 59 1008.1
20260509213040 70 127 0.0 2.0 0.00 0.00 0.00 59 1007.9
20260509211538 70 134 1.0 3.0 0.00 0.00 0.00 58 1007.7
20260509210040 70 135 2.0 4.0 0.00 0.00 0.00 58 1007.7
20260509204536 70 129 0.0 3.0 0.00 0.00 0.00 60 1007.7
20260509203041 69 138 1.0 4.0 0.00 0.00 0.00 61 1007.8
20260509201534 68 125 0.0 3.0 0.00 0.00 0.00 63 1008.0
20260509200036 68 117 1.0 3.0 0.00 0.00 0.00 61 1008.2
20260509194530 68 124 1.0 4.0 0.00 0.00 0.00 61 1008.3
20260509193030 67 113 1.0 3.0 0.00 0.00 0.00 62 1008.4
20260509191527 68 140 1.0 4.0 0.00 0.00 0.00 60 1008.8
20260509190040 70 136 1.0 4.0 0.00 0.00 0.00 57 1009.0
20260509184533 69 143 1.0 4.0 0.00 0.00 0.00 59 1009.1
20260509183028 70 135 1.0 4.0 0.00 0.00 0.00 57 1009.2
20260509181521 72 132 2.0 6.0 0.00 0.00 0.00 52 1009.4
20260509180017 72 154 3.0 9.0 0.00 0.00 0.00 42 1009.6
20260509174523 72 210 3.0 8.0 0.00 0.00 0.00 40 1009.7
20260509173016 73 234 1.0 17.0 0.00 0.00 0.00 41 1009.7
20260509171514 72 188 1.0 7.0 0.00 0.00 0.00 40 1009.7
20260509170026 72 240 2.0 9.0 0.00 0.00 0.00 39 1009.8
20260509164511 72 221 2.0 11.0 0.00 0.00 0.00 38 1009.8
20260509163010 73 255 3.0 7.0 0.00 0.00 0.00 37 1009.7
20260509161509 73 249 3.0 15.0 0.00 0.00 0.00 38 1009.9
20260509160005 73 244 4.0 11.0 0.00 0.00 0.00 40 1010.3
20260509154601 72 217 4.0 11.0 0.00 0.00 0.00 40 1010.3
20260509154502 72 189 3.0 11.0 0.00 0.00 0.00 40 1010.3